Weather in Barrie

Canada     44°22′10″N   79°41′14″W
temp.,
°C
wind,
m/s
gust,
m/s
humid.,
%
clouds,
%
prec.,
mm/h
press.,
hPa
HPBL,
m
7 march, sun
sun701:00−11nnw239169 0.0 102646
04:00−13n2293100 0.0 102844
07:00−14nnw239470 0.0 103061
10:00−10nnw238647 0.0 1031346
13:00−7nw337568 0.0 1032758
16:00−7n348395 0.0 1031490
19:00−11nnw229277 0.0 103337
22:00−12ssw119444 0.0 103221
8 march, mon
mon801:00−12ssw229225 0.0 103221
04:00−12s228265 0.0 103129
07:00−8s477882 0.0 1030183
10:00−3s6108399 0.0 1027339
13:00+2s5109397 0.0 1026517
16:00+2s3495100 0.0 102392
19:00+2w239099 0.0 102469
22:00+1wnw399597 0.0 1023195
9 march, tue
tue901:000wnw499184 0.0 1025207
04:00−1nw4119469 0.0 1026293
07:000nw489563 0.0 1029377
10:00+1nw249389 0.0 1030384
13:00+3s018185 0.0 1031388
16:00+4sse24760 0.0 1029364
19:00+1sse348811 0.0 103062
22:000sse49875 0.0 1029212
10 march, wed
wed1001:00+1s4109038 0.0 1027260
04:00+1s4992100 0.0 1026213
07:00+2s51193100 0.0 1025251
10:00+6s6128292 0.0 1023473
13:00+9s7137596 0.0 1021769
16:00+9s51578100 0.0 1019746
19:00+7s81891100 0.9 1019664
22:00+9ssw81989100 1.4 1018792
11 march, thu
thu1101:00+9sw81883100 1.9 1016691
04:00+9sw81887100 0.3 1016670
07:00+9sw6168887 0.3 1015624
10:00+13sw81481100 0.0 1014904
13:00+14sw71379100 0.0 1014933
16:00+14wsw51077100 0.1 1015791
19:00+6nnw4689100 0.8 1016223
22:00+4nnw5889100 0.9 1017337